Regional Weather Roundup
Issued by NWS

Home | Current Version | Previous Version | Graphics & Text | Print | Product List | Glossary On
Versions: 1 2 3 4 5 6 7 8 9 10 11 12 13 14 15 16 17 18 19 20 21 22 23 24 25 26 27 28 29 30 31 32 33 34 35 36 37 38 39 40 41 42 43 44 45 46 47 48 49 50
000
ASUS45 KABQ 290910
RWRNM
WEATHER ROUNDUP FOR NEW MEXICO
NATIONAL WEATHER SERVICE ALBUQUERQUE NM
300 AM MDT SUN MAR 29 2015

NOTE: "FAIR" MEANS FEW OR NO CLOUDS BELOW 12,000 FEET AGL WITH NO
       SIGNIFICANT WEATHER OR OBSTRUCTIONS TO VISION.

      THIS PRODUCT IS RELEASED AS TWO VERSIONS.  ONE VERSION NEAR
      THE TOP OF THE HOUR CONTAINING PRELIMINARY DATA FROM ALBUQUERQUE
      AND OTHER STATIONS.  A FINAL VERSION WITH ADDITIONAL DATA IS
      ISSUED ABOUT 10 MINUTES AFTER THE HOUR.

NMZ501-503-504-510>518-291000-
NORTHWEST PLATEAU/NORTHCENTRAL MOUNTAINS

CITY           SKY/WX    TMP DP  RH WIND       PRES   REMARKS
FARMINGTON     CLEAR     39  17  41 E3        30.17S
LOS ALAMOS     CLEAR     55  12  18 E6        30.23S
SANTA FE       CLEAR     44  15  31 NW3       30.18S
TAOS           CLEAR     37  16  41 E7        30.23R WCI  32
ANGEL FIRE     FAIR      34  20  57 SW7       30.27S WCI  28

$$
NMZ402-403-502-505>509-291000-
WESTCENTRAL MOUNTAINS/SOUTHWEST MOUNTAINS

CITY           SKY/WX    TMP DP  RH WIND       PRES   REMARKS
GALLUP         CLEAR     36  13  38 NE5       30.27S WCI  32
GRANTS         CLEAR     45  13  27 NW8       30.26S
SILVER CITY    PTCLDY    46  12  25 N13       30.23S

$$
NMZ407-409-411-412-291000-
SOUTHERN DESERTS

CITY           SKY/WX    TMP DP  RH WIND       PRES   REMARKS
LORDSBURG      FAIR      54  12  19 W9        30.17S
DEMING         PTCLDY    51  10  19 SW9       30.14S
LAS CRUCES     CLEAR     57   5  12 N6        30.14F
HOLLOMAN AFB   PTCLDY    50  11  21 E2        30.09R
ALAMOGORDO     PTCLDY    54  10  17 CALM      30.10S
T OR C         CLEAR     58   4  11 N6        30.15S

$$
NMZ519>523-291000-
CENTRAL VALLEYS/CENTRAL HIGHLANDS

CITY           SKY/WX    TMP DP  RH WIND       PRES   REMARKS
ALBUQUERQUE    CLEAR     48  15  26 SE9       30.18R
DOUBLE EAGLE   CLEAR     46  14  26 W10       30.19S
MORIARTY ARPT  FAIR      36  16  43 CALM      30.20R
CLINES CORNERS PTCLDY    45  17  32 NW15      30.19S
BELEN          FAIR      57   9  14 W10       30.18S
SOCORRO        FAIR      69   9  10 W17G24    30.14S

$$
NMZ524>526-539-540-291000-
SOUTHCENTRAL MOUNTAINS

CITY           SKY/WX    TMP DP  RH WIND       PRES   REMARKS
RUIDOSO        CLEAR     50  10  20 W10       30.25S

$$
NMZ527>531-291000-
NORTHEAST HIGHLANDS/NORTHEAST PLAINS

CITY           SKY/WX    TMP DP  RH WIND       PRES   REMARKS
LAS VEGAS      CLEAR     53  13  20 W6        30.16F
RATON          CLEAR     44  19  36 NE6       30.11R
CLAYTON        CLEAR     57  22  25 W14       30.00S

$$
NMZ532>537-291000-
EASTCENTRAL PLAINS

CITY           SKY/WX    TMP DP  RH WIND       PRES   REMARKS
TUCUMCARI      CLEAR     48  27  44 SW9       29.97F
CANNON AFB     CLEAR     53  27  37 SW7       30.01F
CLOVIS AIRPORT CLEAR     52  28  40 SW10      30.01F

$$
NMZ028-029-538-291000-
SOUTHEAST PLAINS

CITY           SKY/WX    TMP DP  RH WIND       PRES   REMARKS
ROSWELL        CLEAR     53  26  35 CALM      30.02S
ARTESIA        CLEAR     48  23  37 SW5       30.03F
CARLSBAD       CLEAR     51  34  52 N10       29.99F
HOBBS          CLEAR     50  25  37 CALM      30.03F


$$



USA.gov is the U.S. government's official web portal to all federal, state and local government web resources and services.